Weather reports worldwide

Advertisment
Zwiesel, Germany (10796): temperature & dewpoint: 07.07.2020 07:00:00 - 13.07.2020 07:00:00 (CEST)Zwiesel, Germany (10796): temperature 5cm & temperature -5cm: 07.07.2020 07:00:00 - 13.07.2020 07:00:00 (CEST)Zwiesel, Germany (10796): temperature -20cm & temperature -100cm: 07.07.2020 07:00:00 - 13.07.2020 07:00:00 (CEST)Zwiesel, Germany (10796): wind speed & gusts: 07.07.2020 07:00:00 - 13.07.2020 07:00:00 (CEST)Zwiesel, Germany (10796): wind direction: 07.07.2020 07:00:00 - 13.07.2020 07:00:00 (CEST)Zwiesel, Germany (10796): reduced air pressure: 07.07.2020 07:00:00 - 13.07.2020 07:00:00 (CEST)Zwiesel, Germany (10796): visibility: 07.07.2020 07:00:00 - 13.07.2020 07:00:00 (CEST)Zwiesel, Germany (10796): sunshine duration: 07.07.2020 07:00:00 - 13.07.2020 07:00:00 (CEST)Zwiesel, Germany (10796): precipitation: 07.07.2020 07:00:00 - 13.07.2020 07:00:00 (CEST)
Date & Time tt [°C] td [°C] tt 5cm [°C] tt -5cm [°C] tt -20cm [°C] tt -100cm [°C] ff [km/h] ff [kn] fx [km/h] fx [kn] dd ppp [hPa] vv [km] sd [min] rr [mm]
13.07.2020 07:00:00 8,6 6,0 7,9 8,4 15,7 15,4 2 1 8 5 SSE 1026,3 75 32 0,0
13.07.2020 06:00:00 5,6 5,0 4,2 7,8 16,1 15,4 3 1 7 4 SSE 1027,0 44 0 0,0
13.07.2020 05:00:00 5,9 5,2 4,4 8,2 16,5 15,4 5 3 7 4 ESE 1027,2 52 0 0,0
13.07.2020 04:00:00 6,5 5,7 4,3 8,8 16,8 15,4 3 2 6 4 SE 1027,3 47 0 0,0
13.07.2020 03:00:00 6,9 6,0 5,2 9,5 17,2 15,4 3 2 5 3 SE 1027,4 57 0 0,0
13.07.2020 02:00:00 7,7 6,1 5,5 10,4 17,6 15,4 4 2 9 5 NNE 1027,4 61 0 0,0
13.07.2020 01:00:00 8,7 6,4 5,7 11,3 18,0 15,4 4 2 9 5 N 1027,1 67 0 0,0
13.07.2020 00:00:00 9,9 6,9 7,4 12,4 18,3 15,4 4 2 14 7 ENE 1027,1 75 0 0,0
12.07.2020 23:00:00 10,3 7,3 7,8 13,7 18,6 15,4 5 3 9 5 N 1027,1 64 0 0,0
12.07.2020 22:00:00 12,0 7,9 8,9 15,6 18,8 15,4 5 3 9 5 NNE 1026,5 66 0 0,0
12.07.2020 21:00:00 14,4 8,8 12,0 18,0 18,9 15,4 4 2 8 4 NE 1025,5 75 16 0,0
12.07.2020 20:00:00 16,3 9,2 15,6 19,9 18,8 15,4 3 2 5 3 N 1024,9 63 0 0,0
12.07.2020 19:00:00 17,4 7,5 17,6 21,3 18,7 15,4 3 2 7 4 SE 1024,7 69 0 0,0
12.07.2020 18:00:00 17,7 6,3 18,6 22,7 18,4 15,4 5 3 10 5 ESE 1024,6 75 9 0,0
12.07.2020 17:00:00 19,0 7,5 21,7 23,4 18,1 15,4 6 4 11 6 SSE 1024,4 46 20 0,0
12.07.2020 16:00:00 17,3 5,5 18,6 23,4 17,7 15,4 7 4 16 9 ENE 1025,2 75 19 0,0
12.07.2020 15:00:00 18,2 5,4 22,3 24,7 17,2 15,4 8 4 18 10 SSE 1024,8 74 27 0,0
12.07.2020 14:00:00 16,5 5,9 17,7 25,2 16,7 15,4 11 6 21 11 NNE 1025,7 58 45 0,0
12.07.2020 13:00:00 17,6 8,0 22,2 21,0 16,3 15,4 10 5 16 9 NNE 1025,5 68 13 0,0
12.07.2020 12:00:00 16,7 5,8 19,4 22,4 15,9 15,4 5 3 14 8 W 1025,5 70 32 0,0
12.07.2020 11:00:00 15,1 7,2 17,0 19,3 15,5 15,4 8 4 19 11 WNW 1025,9 67 24 0,0
12.07.2020 10:00:00 16,8 6,5 19,6 19,1 15,4 15,4 5 3 9 5 ESE 1025,4 52 51 0,0
12.07.2020 09:00:00 13,7 9,7 16,8 15,2 15,5 15,4 4 2 6 4 W 1026,1 51 60 0,0
12.07.2020 08:00:00 10,5 7,6 11,6 11,1 15,7 15,4 2 1 4 2 WSW 1027,0 41 60 0,0
12.07.2020 07:00:00 7,6 6,7 7,7 8,5 16,1 15,4 4 2 7 4 ESE 1027,5 27 33 0,0
12.07.2020 06:00:00 5,4 5,2 4,1 7,9 16,4 15,4 2 1 5 3 ESE 1027,7 11 0 0,0
12.07.2020 05:00:00 5,6 5,3 3,7 8,4 16,8 15,4 2 1 7 4 ENE 1027,5 7 0 0,0
12.07.2020 04:00:00 6,3 5,9 5,0 9,1 17,2 15,4 4 2 7 4 E 1027,0 17 0 0,0
12.07.2020 03:00:00 7,6 7,0 5,9 9,8 17,6 15,3 3 2 12 7 ENE 1026,8 29 0 0,0
12.07.2020 02:00:00 7,9 7,5 6,2 10,5 18,0 15,3 3 2 9 5 NE 1026,8 30 0 0,0
12.07.2020 01:00:00 8,4 7,9 6,5 11,4 18,4 15,3 4 2 5 3 NE 1026,6 19 0 0,0
12.07.2020 00:00:00 9,0 8,5 7,4 12,5 18,7 15,3 2 1 7 4 ENE 1026,4 13 0 0,0
11.07.2020 23:00:00 10,3 9,4 8,0 13,7 19,0 15,3 3 2 6 4 N 1025,7 38 0 0,0
11.07.2020 22:00:00 11,5 10,4 9,2 15,3 19,2 15,3 2 1 8 4 SW 1024,8 33 0 0,0
11.07.2020 21:00:00 13,6 10,0 12,0 17,5 19,3 15,3 3 1 19 10 N 1023,5 58 32 0,0
11.07.2020 20:00:00 14,2 9,4 14,2 18,3 19,3 15,3 9 5 25 13 NNE 1023,0 61 0 0,0
11.07.2020 19:00:00 15,7 9,0 16,2 20,9 19,1 15,3 8 4 19 10 NE 1022,2 75 7 0,0
11.07.2020 18:00:00 16,3 9,2 17,3 23,3 18,8 15,3 8 4 22 12 N 1021,8 65 51 0,0
11.07.2020 17:00:00 16,8 10,0 18,7 22,5 18,6 15,3 9 5 21 11 N 1021,2 75 23 0,0
11.07.2020 16:00:00 15,4 9,5 17,6 22,4 18,4 15,3 12 6 23 12 NE 1022,3 66 22 0,0
11.07.2020 15:00:00 15,3 10,3 17,7 21,2 18,3 15,3 11 6 18 10 NNE 1022,0 56 13 0,0
11.07.2020 14:00:00 14,2 10,8 16,9 18,7 18,4 15,3 9 5 18 10 N 1021,6 75 1 0,0
11.07.2020 13:00:00 12,5 10,7 13,5 16,4 18,5 15,3 6 4 19 10 N 1022,1 58 0 0,4
11.07.2020 12:00:00 12,1 11,0 12,4 15,6 18,7 15,3 6 3 24 13 N 1021,8 14 0 1,9
11.07.2020 11:00:00 12,9 11,8 12,9 15,7 18,9 15,2 8 4 16 9 N 1020,5 19 0 2,1
11.07.2020 10:00:00 13,1 12,2 13,2 15,8 19,1 15,2 6 3 9 5 NE 1019,9 9 0 1,9
11.07.2020 09:00:00 13,3 12,2 13,2 15,8 19,4 15,2 5 3 9 5 N 1019,5 11 0 1,7
11.07.2020 08:00:00 13,3 12,0 13,0 15,6 19,6 15,2 7 4 16 9 N 1018,8 21 0 1,7
11.07.2020 07:00:00 13,3 12,0 13,0 15,8 19,9 15,2 6 4 14 8 NNE 1018,5 22 0 1,8
11.07.2020 06:00:00 13,8 12,3 13,2 16,3 20,2 15,2 9 5 18 10 NNE 1018,2 21 0 0,4
11.07.2020 05:00:00 14,2 12,0 13,7 16,7 20,5 15,2 6 3 13 7 N 1017,6 70 0 0,0
11.07.2020 04:00:00 14,1 13,0 13,8 17,1 20,8 15,2 4 2 13 7 NNE 1017,3 53 0 0,1
11.07.2020 03:00:00 14,1 13,6 14,1 17,7 21,1 15,2 3 2 8 4 NE 1017,6 35 0 0,0
11.07.2020 02:00:00 14,4 14,0 14,3 18,1 21,5 15,2 2 1 6 3 NNW 1017,8 24 0 0,0
11.07.2020 01:00:00 14,5 14,0 14,0 18,9 21,8 15,2 2 1 4 2 N 1017,5 30 0 0,0
11.07.2020 00:00:00 15,1 13,5 14,9 20,0 22,1 15,2 0 0 10 5 N 1016,7 61 0 0,3
10.07.2020 23:00:00 15,9 14,2 15,5 21,3 22,4 15,2 6 3 22 12 E 1016,6 30 0 1,2
10.07.2020 22:00:00 19,7 13,9 17,2 23,1 22,6 15,2 4 2 24 13 SW 1014,6 38 0 0,2
10.07.2020 21:00:00 22,0 12,8 21,3 24,6 22,7 15,2 13 7 26 14 N 1012,8 69 0 0,0
10.07.2020 20:00:00 23,2 13,7 20,9 26,9 22,6 15,2 9 5 20 11 N 1010,9 61 5 0,0
10.07.2020 19:00:00 25,4 14,8 27,1 29,5 22,4 15,2 14 8 38 21 W 1009,8 51 48 0,0
10.07.2020 18:00:00 26,9 13,1 26,2 30,4 22,1 15,2 13 7 28 15 SSW 1008,3 56 30 0,0
10.07.2020 17:00:00 27,4 13,8 29,8 32,4 21,5 15,2 15 8 29 16 SW 1008,5 73 37 0,0
10.07.2020 16:00:00 28,3 12,9 33,2 32,8 21,0 15,2 16 9 36 20 SSW 1008,7 75 54 0,0
10.07.2020 15:00:00 28,0 14,1 34,4 31,9 20,4 15,2 18 10 33 18 WSW 1009,0 52 40 0,0
10.07.2020 14:00:00 26,8 13,5 30,2 31,7 19,7 15,2 16 9 32 17 SSW 1009,6 75 48 0,0
10.07.2020 13:00:00 27,0 11,9 32,9 29,6 19,2 15,2 13 7 29 16 S 1009,9 75 49 0,0
10.07.2020 12:00:00 25,7 11,8 29,0 28,5 18,6 15,2 15 8 26 14 S 1010,5 64 57 0,0
10.07.2020 11:00:00 25,0 12,7 29,7 26,6 18,1 15,2 14 7 23 12 SSW 1011,0 68 60 0,0
10.07.2020 10:00:00 23,9 13,6 28,0 25,0 17,8 15,2 4 2 12 7 SSW 1011,6 75 60 0,0
10.07.2020 09:00:00 21,0 13,4 26,0 21,0 17,8 15,2 2 1 4 2 W 1012,5 67 60 0,0
10.07.2020 08:00:00 16,8 13,6 19,8 16,9 18,0 15,2 3 2 4 2 W 1013,8 48 60 0,0
10.07.2020 07:00:00 13,9 11,6 14,2 13,5 18,3 15,2 2 1 3 2 WSW 1014,8 41 34 0,0
10.07.2020 06:00:00 11,6 11,3 10,0 12,4 18,7 15,2 3 1 5 3 ENE 1015,6 25 0 0,0
10.07.2020 05:00:00 11,8 11,3 9,5 12,8 19,1 15,2 2 1 6 3 SSW 1015,5 37 0 0,0
10.07.2020 04:00:00 12,5 11,8 10,7 13,5 19,5 15,2 4 2 6 4 S 1015,4 46 0 0,0
10.07.2020 03:00:00 12,6 11,8 10,8 14,1 19,9 15,2 4 2 5 3 S 1015,7 46 0 0,0
10.07.2020 02:00:00 13,4 12,3 11,3 15,0 20,3 15,2 4 2 5 3 S 1015,9 57 0 0,0
10.07.2020 01:00:00 14,0 12,6 11,6 15,9 20,7 15,2 0 0 4 2 N 1016,0 56 0 0,0
10.07.2020 00:00:00 14,9 13,0 12,0 17,0 21,2 15,2 2 1 4 2 ESE 1015,6 61 0 0,0
09.07.2020 23:00:00 15,8 13,0 13,3 18,5 21,5 15,2 2 1 5 3 NNW 1015,3 67 0 0,0
09.07.2020 22:00:00 17,8 12,9 14,9 20,5 21,8 15,2 5 3 10 5 N 1014,5 62 0 0,0
09.07.2020 21:00:00 21,9 12,1 18,4 23,4 21,9 15,2 4 2 18 10 S 1013,3 60 46 0,0
09.07.2020 20:00:00 23,6 12,0 23,2 26,5 21,8 15,2 10 5 24 13 SW 1012,9 75 60 0,0
09.07.2020 19:00:00 24,1 11,3 25,1 30,6 21,4 15,2 15 8 27 15 SW 1012,8 75 60 0,0
09.07.2020 18:00:00 24,3 12,7 26,8 31,5 21,0 15,2 15 8 27 15 WSW 1013,0 66 48 0,0
09.07.2020 17:00:00 24,0 13,4 27,8 32,8 20,4 15,2 14 8 27 14 SW 1013,7 68 48 0,0
09.07.2020 16:00:00 23,2 13,2 26,7 33,6 19,7 15,2 16 9 33 18 SW 1014,3 45 49 0,0
09.07.2020 15:00:00 23,6 13,8 29,0 31,9 19,1 15,2 14 8 36 19 SW 1014,7 61 34 0,0
09.07.2020 14:00:00 22,8 13,3 27,8 31,7 18,3 15,2 18 10 39 21 WSW 1015,5 53 48 0,0
09.07.2020 13:00:00 22,4 13,7 28,5 29,8 17,7 15,2 18 10 29 16 WSW 1015,9 49 53 0,0
09.07.2020 12:00:00 21,4 13,0 25,9 27,2 17,3 15,2 11 6 24 13 WSW 1016,2 62 44 0,0
09.07.2020 11:00:00 19,7 14,0 24,0 23,8 17,0 15,2 6 4 15 8 S 1017,1 70 17 0,0
09.07.2020 10:00:00 17,1 12,5 20,8 21,1 16,9 15,2 5 3 9 5 N 1018,1 41 14 0,0
09.07.2020 09:00:00 15,5 13,0 17,2 17,9 16,9 15,2 3 2 5 3 W 1018,1 50 0 0,0
09.07.2020 08:00:00 14,3 12,7 15,1 15,7 17,0 15,2 0 0 4 2 N 1018,5 47 0 0,0
09.07.2020 07:00:00 13,5 12,5 13,8 14,8 17,1 15,2 0 0 4 2 N 1018,5 39 0 0,0
09.07.2020 06:00:00 13,1 12,6 13,3 14,5 17,2 15,2 3 2 4 2 N 1018,4 22 0 0,0
09.07.2020 05:00:00 13,1 12,4 13,1 14,5 17,4 15,2 3 2 6 3 NE 1018,5 30 0 0,0
09.07.2020 04:00:00 13,2 12,5 13,1 14,6 17,5 15,2 2 1 8 5 SE 1018,5 32 0 0,0
09.07.2020 03:00:00 13,1 12,4 13,1 14,8 17,7 15,2 3 2 6 3 SE 1018,7 44 0 0,0
09.07.2020 02:00:00 13,2 12,5 13,2 14,9 17,9 15,2 4 2 8 4 SSE 1018,8 32 0 0,1
09.07.2020 01:00:00 13,3 12,4 13,2 15,2 18,1 15,2 3 1 10 5 SSE 1019,1 15 0 0,2
09.07.2020 00:00:00 13,3 12,2 13,2 15,4 18,4 15,2 3 2 10 5 SSE 1019,1 39 0 0,1
08.07.2020 23:00:00 13,7 12,3 13,5 15,8 18,6 15,2 3 2 10 5 SSE 1018,8 38 0 0,0
08.07.2020 22:00:00 13,9 11,5 13,3 16,1 18,8 15,2 4 2 18 10 W 1018,6 64 0 0,0
08.07.2020 21:00:00 14,5 11,0 14,3 17,3 19,0 15,2 8 4 15 8 NNE 1018,1 62 0 0,0
08.07.2020 20:00:00 15,1 11,1 15,2 18,6 19,1 15,2 3 2 14 8 N 1017,3 55 0 0,0
08.07.2020 19:00:00 15,5 11,9 15,2 19,5 19,2 15,2 10 6 16 9 NW 1017,3 52 0 0,0
08.07.2020 18:00:00 16,5 12,5 15,9 20,9 19,1 15,2 5 3 19 10 NNE 1016,5 37 0 0,6
08.07.2020 17:00:00 17,9 11,0 16,3 22,7 18,8 15,2 12 7 29 16 W 1016,0 20 0 0,0
08.07.2020 16:00:00 20,1 10,0 22,8 27,1 18,4 15,2 19 10 36 19 W 1014,8 75 7 0,0
08.07.2020 15:00:00 20,0 8,5 22,7 27,8 17,8 15,2 17 9 35 19 SW 1014,7 73 12 0,0
08.07.2020 14:00:00 18,9 8,6 21,5 28,0 17,2 15,2 17 9 33 18 SW 1015,7 69 38 0,0
08.07.2020 13:00:00 18,8 8,8 24,2 26,5 16,6 15,2 18 10 33 18 W 1015,8 75 55 0,0
08.07.2020 12:00:00 18,1 8,0 20,7 25,8 16,2 15,2 14 8 34 19 SW 1016,0 60 46 0,0
08.07.2020 11:00:00 17,2 7,1 19,6 22,7 15,8 15,2 16 9 27 15 WSW 1016,3 61 38 0,0
08.07.2020 10:00:00 16,7 8,0 22,1 20,0 15,6 15,2 3 2 8 4 W 1016,8 58 42 0,0
08.07.2020 09:00:00 13,1 8,0 16,7 15,9 15,7 15,2 3 2 5 3 WNW 1017,9 73 26 0,0
08.07.2020 08:00:00 10,9 8,2 11,0 12,5 15,8 15,2 0 0 4 2 N 1018,5 54 6 0,0
08.07.2020 07:00:00 8,8 7,7 9,3 10,9 16,1 15,2 0 0 4 2 N 1018,9 49 2 0,0
08.07.2020 06:00:00 7,7 7,0 7,7 9,9 16,4 15,2 2 1 4 2 SSW 1019,6 42 0 0,0
08.07.2020 05:00:00 7,2 6,4 5,8 9,9 16,7 15,2 0 0 3 2 N 1019,5 49 0 0,0
08.07.2020 04:00:00 7,7 7,0 7,4 10,3 17,0 15,2 0 0 5 3 N 1019,7 36 0 0,0
08.07.2020 03:00:00 7,2 6,4 6,0 9,9 17,4 15,2 0 0 5 3 N 1020,2 53 0 0,0
08.07.2020 02:00:00 7,5 6,4 6,2 10,0 17,9 15,2 2 1 5 3 N 1020,5 64 0 0,0
08.07.2020 01:00:00 8,2 6,6 6,0 11,0 18,3 15,2 3 2 6 3 E 1020,3 63 0 0,0
08.07.2020 00:00:00 9,4 6,9 7,0 12,4 18,7 15,2 0 0 8 4 N 1020,2 68 0 0,0
07.07.2020 23:00:00 10,2 7,5 7,8 13,7 19,0 15,2 3 1 5 3 NW 1019,8 70 0 0,0
07.07.2020 22:00:00 11,5 7,6 9,1 15,8 19,3 15,2 2 1 6 4 ENE 1019,3 65 0 0,0
07.07.2020 21:00:00 13,7 7,6 12,1 18,7 19,4 15,2 3 2 10 5 N 1018,5 63 27 0,0
07.07.2020 20:00:00 16,3 5,9 16,8 21,6 19,2 15,2 8 5 19 10 WNW 1017,8 55 52 0,0
07.07.2020 19:00:00 17,1 5,0 19,0 26,3 18,9 15,2 8 5 19 10 WSW 1018,0 64 53 0,0
07.07.2020 18:00:00 17,3 6,6 21,3 26,1 18,5 15,2 11 6 20 11 WSW 1018,0 46 39 0,0
07.07.2020 17:00:00 16,8 5,0 19,7 28,1 18,1 15,2 13 7 23 13 W 1018,6 68 36 0,0
07.07.2020 16:00:00 16,3 5,3 19,2 27,1 17,6 15,2 13 7 23 12 WSW 1019,3 62 24 0,0
07.07.2020 15:00:00 16,1 7,2 20,3 26,0 17,1 15,2 13 7 21 12 WNW 1019,5 63 22 0,0
07.07.2020 14:00:00 16,3 6,0 21,7 26,8 16,6 15,2 16 9 27 15 WSW 1019,6 58 33 0,0
07.07.2020 13:00:00 15,0 4,9 20,2 24,5 16,0 15,2 16 9 26 14 W 1020,3 62 38 0,0
07.07.2020 12:00:00 15,3 6,4 21,5 21,3 15,6 15,2 16 9 30 16 WNW 1020,4 56 32 0,0
07.07.2020 11:00:00 14,3 5,9 19,8 21,1 15,2 15,2 15 8 28 15 W 1020,9 60 59 0,0
07.07.2020 10:00:00 13,2 5,0 17,3 18,2 15,0 15,2 19 10 26 14 WSW 1020,9 55 60 0,0
07.07.2020 09:00:00 12,4 5,2 17,0 15,6 15,0 15,2 4 2 10 5 ESE 1021,4 75 60 0,0
07.07.2020 08:00:00 10,6 5,3 12,9 11,5 15,2 15,2 3 2 6 3 S 1022,1 73 60 0,0
07.07.2020 07:00:00 7,0 4,8 7,0 7,8 15,6 15,2 4 2 8 4 E 1023,1 45 37 0,0

tt = temperature
td = dewpoint
tt 5cm = temperature 5cm
tt -5cm = temperature -5cm
tt -20cm = temperature -20cm
tt -100cm = temperature -100cm
ff = wind speed
fx = gusts
dd = wind direction
ppp = reduced air pressure
vv = visibility
sd = sunshine duration
rr = precipitation

Next stations